[[{"header":{"parameterUnit":"m.s-1","parameterCategory":1,"la1":30.2991,"la2":30.254,"lo1":-89.0895,"lo2":-89.0444,"dy":0.0017,"dx":0.0017,"nx":28,"ny":28,"refTime":"2025-09-11T03:00:00:Z","depth":0,"parameterNumber":2,"parameterNumberName":"U-component_of_WINDS"},"data":[0,0,0,0,0,0,0,0,0,0,0,0,0,0,0,0,0,0,0,0,0,0,0,0,0,0,0,0,0,0,0,0,0,0,0,0,0,0,0,0,0,0,0,0,0,0,0,0,0,0,0,0,0,0,0,0,0,0,-0.8203,-0.8203,0,-0.8192,-0.8192,-0.8192,-0.8153,-0.8152,-0.8151,-0.815,-0.814,-0.814,-0.8141,0,0,0,0,0,0,0,0,0,0,0,0,0,-0.8191,-0.8192,-0.8203,-0.8203,-0.8203,-0.8192,-0.8192,-0.8192,-0.8153,-0.8152,-0.8151,-0.815,-0.814,-0.814,-0.8141,0,0,0,0,0,0,0,0,0,0,0,0,0,-0.819,-0.8192,-0.8203,-0.8182,-0.818,-0.8192,-0.8192,-0.8192,-0.8153,-0.8152,-0.815,-0.8149,-0.8139,-0.814,-0.8141,-0.8173,0,0,-0.8144,-0.8144,0,0,0,0,0,0,0,0,-0.819,-0.8191,-0.8185,-0.8183,-0.8181,-0.8172,-0.8184,-0.8186,-0.8153,-0.8163,-0.815,-0.8148,-0.8152,-0.8152,-0.8152,-0.8173,-0.8172,-0.8144,-0.8144,-0.8145,-0.8145,0,0,0,0,0,0,0,-0.819,-0.8191,-0.8199,-0.8185,-0.8183,-0.8174,-0.8172,-0.8184,-0.8165,-0.8162,-0.8159,-0.8159,-0.815,-0.8152,-0.8152,-0.8172,-0.8144,-0.8144,-0.8145,-0.8145,-0.8219,-0.822,0,0,0,0,0,0,-0.8193,-0.8191,-0.8199,-0.8198,-0.8183,-0.8175,-0.8173,-0.8177,-0.8165,-0.8162,-0.816,-0.8157,-0.8151,-0.8151,-0.8151,-0.8189,-0.8145,-0.8145,-0.8146,-0.8217,-0.8219,-0.8221,0,0,0,0,0,0,-0.8193,-0.8194,-0.82,-0.8194,-0.8194,-0.8176,-0.8181,-0.8177,-0.8178,-0.8163,-0.816,-0.8165,-0.815,-0.815,-0.8168,-0.8188,-0.8146,-0.8146,-0.8216,-0.8218,-0.822,-0.8263,0,0,0,0,0,0,-0.8193,-0.8195,-0.8206,-0.8195,-0.8194,-0.8216,-0.8182,-0.8178,-0.818,-0.8176,-0.8167,-0.8164,-0.8149,-0.8167,-0.8169,-0.8188,-0.8147,-0.8214,-0.8217,-0.8219,-0.826,-0.8267,-0.8273,0,0,0,0,0,-0.8193,-0.8219,-0.8207,-0.8208,-0.8209,-0.8217,-0.8217,-0.8199,-0.8181,-0.8193,-0.8184,-0.8164,-0.8185,-0.8169,-0.8171,-0.8191,-0.8212,-0.8216,-0.8219,-0.8257,-0.8266,-0.8272,0,0,0,0,0,0,-0.8233,-0.8217,-0.8204,-0.8227,-0.8224,-0.8211,-0.8225,-0.8208,-0.8211,-0.8207,-0.8185,-0.8183,-0.8204,-0.8199,-0.8182,-0.8222,-0.8196,-0.8199,-0.8224,-0.8232,-0.8238,-0.8239,-0.8148,0,0,0,0,0,-0.8245,-0.8253,-0.8239,-0.826,-0.826,-0.8243,-0.8246,-0.8232,-0.8229,-0.8227,-0.8219,-0.8216,-0.8222,-0.8227,-0.8231,-0.8259,-0.8257,-0.8274,-0.828,-0.8285,-0.8289,-0.8304,-0.8311,-0.8231,-0.8231,-0.8231,0,0,-0.8269,-0.8261,-0.8268,-0.8268,-0.8264,-0.8274,-0.8242,-0.8253,-0.826,-0.8229,-0.8245,-0.8239,-0.8235,-0.8258,-0.8268,-0.8254,-0.831,-0.8289,-0.8293,-0.8294,-0.8308,-0.8316,-0.8322,-0.8234,-0.8233,-0.8233,0,0,-0.8318,-0.8313,-0.8331,-0.8328,-0.8322,-0.8311,-0.8315,-0.8305,-0.83,-0.8316,-0.8293,-0.8301,-0.8312,-0.831,-0.831,-0.8359,-0.8342,-0.8361,-0.8394,-0.8409,-0.8415,-0.8421,-0.8439,-0.8446,-0.8365,-0.8365,-0.8365,0,-0.8349,-0.8362,-0.8342,-0.8355,-0.8357,-0.8328,-0.8347,-0.8345,-0.8341,-0.8343,-0.8328,-0.8342,-0.8337,-0.8359,-0.8371,-0.8372,-0.8377,-0.8363,-0.8416,-0.8421,-0.8426,-0.8443,-0.845,-0.8368,-0.8367,-0.8367,-0.8367,0,-0.8401,-0.8411,-0.8426,-0.8423,-0.8426,-0.8442,-0.8425,-0.843,-0.8416,-0.8407,-0.8424,-0.8417,-0.842,-0.8425,-0.8411,-0.8446,-0.8438,-0.842,-0.8393,-0.8437,-0.8452,-0.8459,-0.8371,-0.837,-0.837,-0.8369,0,0,-0.8476,-0.8462,-0.8468,-0.8467,-0.8459,-0.8466,-0.8481,-0.8484,-0.8489,-0.8488,-0.85,-0.851,-0.8493,-0.8494,-0.848,-0.8493,-0.8534,-0.8474,-0.8473,-0.8486,-0.8572,-0.8587,-0.8595,-0.8522,-0.8523,-0.8524,-0.8573,0,-0.8523,-0.8547,-0.853,-0.8557,-0.8566,-0.854,-0.8553,-0.8549,-0.8541,-0.8548,-0.8539,-0.8546,-0.8523,-0.8524,-0.8535,-0.8527,-0.8551,-0.8523,-0.8534,-0.8535,-0.8536,-0.8603,-0.8618,-0.8664,-0.8579,-0.858,-0.8581,0,-0.8581,-0.8583,-0.8611,-0.8602,-0.8605,-0.8617,-0.8619,-0.8625,-0.8621,-0.8614,-0.8615,-0.8598,-0.8613,-0.8586,-0.8606,-0.8588,-0.8591,-0.8587,-0.8589,-0.859,-0.8561,-0.8606,-0.8678,-0.8686,-0.859,-0.8589,-0.8589,0,-0.8634,-0.8643,-0.8661,-0.8661,-0.865,-0.8659,-0.8656,-0.865,-0.8653,-0.8655,-0.8657,-0.866,-0.8662,-0.8666,-0.865,-0.8632,-0.8673,-0.8645,-0.8668,-0.8668,-0.8678,-0.8678,-0.8753,-0.8679,-0.8679,-0.8679,-0.8679,0,-0.8689,-0.8708,-0.8685,-0.8696,-0.8716,-0.8696,-0.8717,-0.871,-0.8706,-0.8716,-0.8693,-0.8703,-0.8682,-0.869,-0.8678,-0.8697,-0.8698,-0.8693,-0.869,-0.8696,-0.8696,-0.8698,-0.8695,-0.8681,-0.868,-0.868,-0.868,0,-0.8752,-0.8737,-0.8755,-0.8744,-0.8741,-0.8757,-0.8747,-0.8758,-0.8748,-0.8761,-0.8763,-0.8747,-0.8756,-0.8741,-0.8747,-0.8739,-0.8766,-0.8757,-0.8767,-0.8765,-0.8789,-0.8787,-0.8868,-0.8878,-0.8798,-0.8799,-0.8799,0,-0.8788,-0.8802,-0.8792,-0.8797,-0.8794,-0.8803,-0.8806,-0.8787,-0.8791,-0.8788,-0.8799,-0.8805,-0.8809,-0.8824,-0.8814,-0.8818,-0.881,-0.8838,-0.8811,-0.8816,-0.8812,-0.8811,-0.8813,-0.8844,-0.8845,-0.8846,-0.8847,0,-0.8855,-0.8847,-0.8852,-0.8855,-0.8859,-0.8861,-0.8861,-0.8866,-0.8846,-0.8852,-0.886,-0.8863,-0.887,-0.8877,-0.8879,-0.8875,-0.8858,-0.8855,-0.8861,-0.8867,-0.8873,-0.8871,-0.8783,-0.8854,-0.8853,-0.8852,-0.8852,-0.8852,-0.8906,-0.8917,-0.8912,-0.8919,-0.8917,-0.8917,-0.8927,-0.8918,-0.8924,-0.8928,-0.8916,-0.8927,-0.8924,-0.8925,-0.8924,-0.8932,-0.892,-0.8928,-0.893,-0.8933,-0.8937,-0.8871,-0.8933,-0.8932,-0.8932,-0.8932,-0.8932,0,-0.8972,-0.8968,-0.8974,-0.8975,-0.898,-0.8963,-0.8962,-0.8968,-0.8978,-0.8975,-0.898,-0.899,-0.8996,-0.8987,-0.8992,-0.9001,-0.8993,-0.9003,-0.9002,-0.9002,-0.8947,-0.8942,-0.9009,-0.9009,-0.9009,-0.9009,-0.9009,-0.9009,-0.9007,-0.9026,-0.9017,-0.9035,-0.903,-0.904,-0.9041,-0.9042,-0.904,-0.9052,-0.9057,-0.9051,-0.9046,-0.9051,-0.9056,-0.9053,-0.9057,-0.9069,-0.9064,-0.9013,-0.9006,-0.8998,-0.8994,-0.907,-0.907,-0.9118,-0.9118,-0.9118]},{"header":{"parameterUnit":"m.s-1","parameterCategory":1,"la1":30.2991,"la2":30.254,"lo1":-89.0895,"lo2":-89.0444,"dy":0.0017,"dx":0.0017,"nx":28,"ny":28,"refTime":"2025-09-11T03:00:00:Z","depth":0,"parameterNumber":3,"parameterNumberName":"V-component_of_WINDS"},"data":[0,0,0,0,0,0,0,0,0,0,0,0,0,0,0,0,0,0,0,0,0,0,0,0,0,0,0,0,0,0,0,0,0,0,0,0,0,0,0,0,0,0,0,0,0,0,0,0,0,0,0,0,0,0,0,0,0,0,0.455,0.455,0,0.4472,0.4471,0.447,0.4419,0.4418,0.4418,0.4418,0.4334,0.4333,0.4331,0,0,0,0,0,0,0,0,0,0,0,0,0,0.4655,0.4653,0.4551,0.455,0.4549,0.4472,0.4471,0.447,0.4419,0.4418,0.4418,0.4418,0.4335,0.4333,0.4331,0,0,0,0,0,0,0,0,0,0,0,0,0,0.4596,0.4652,0.4551,0.4514,0.451,0.4472,0.4471,0.4469,0.4419,0.4418,0.4418,0.4417,0.4336,0.4333,0.433,0.4322,0,0,0.4321,0.432,0,0,0,0,0,0,0,0,0.4599,0.4592,0.452,0.4516,0.4512,0.4455,0.4477,0.442,0.4419,0.4453,0.4418,0.4417,0.4375,0.4369,0.4355,0.4318,0.4314,0.4321,0.4319,0.4318,0.4317,0,0,0,0,0,0,0,0.4603,0.4595,0.4519,0.4519,0.4514,0.4501,0.4492,0.4466,0.4418,0.445,0.4446,0.4438,0.4372,0.4358,0.4352,0.4313,0.4321,0.4319,0.4317,0.4316,0.4266,0.4266,0,0,0,0,0,0,0.4614,0.4599,0.4522,0.4517,0.4555,0.4499,0.4489,0.4473,0.4418,0.4409,0.4438,0.4436,0.4363,0.4356,0.4349,0.4336,0.4318,0.4315,0.4314,0.4265,0.4266,0.4266,0,0,0,0,0,0,0.4616,0.4607,0.4525,0.4557,0.4545,0.4498,0.448,0.4472,0.4457,0.4409,0.44,0.4433,0.4362,0.4353,0.4329,0.4332,0.4314,0.4312,0.4265,0.4265,0.4266,0.4309,0,0,0,0,0,0,0.4619,0.4608,0.4605,0.4557,0.4544,0.4507,0.4481,0.4471,0.4453,0.4449,0.4401,0.4392,0.4361,0.4334,0.4326,0.4328,0.4309,0.4264,0.4265,0.4266,0.4307,0.4311,0.4315,0,0,0,0,0,0.4623,0.462,0.4605,0.4596,0.4539,0.4507,0.45,0.4465,0.4453,0.445,0.4418,0.4394,0.4333,0.4332,0.4323,0.4324,0.4264,0.4265,0.4266,0.4306,0.431,0.4315,0,0,0,0,0,0,0.4669,0.4613,0.4596,0.4578,0.4548,0.4499,0.4493,0.4471,0.4443,0.444,0.4397,0.4386,0.4366,0.4342,0.4342,0.4313,0.4296,0.4295,0.4329,0.4333,0.4337,0.4343,0.4307,0,0,0,0,0,0.4677,0.4657,0.4609,0.4597,0.4583,0.4541,0.4526,0.4501,0.4468,0.4455,0.4422,0.439,0.4363,0.4347,0.432,0.4304,0.4292,0.43,0.4303,0.4307,0.4306,0.4296,0.4299,0.4269,0.4269,0.4269,0,0,0.4693,0.466,0.465,0.4605,0.4579,0.4558,0.453,0.4509,0.4493,0.4451,0.4427,0.4402,0.4363,0.4343,0.4332,0.4322,0.4312,0.4308,0.4311,0.4309,0.4297,0.43,0.4302,0.427,0.427,0.4269,0,0,0.4712,0.4685,0.4673,0.4647,0.4609,0.4581,0.4578,0.4532,0.4514,0.4489,0.4457,0.4437,0.4393,0.4366,0.4347,0.4357,0.4333,0.4349,0.4368,0.4358,0.4361,0.4363,0.4366,0.4368,0.4349,0.4349,0.4349,0,0.4737,0.4705,0.4669,0.465,0.4631,0.4593,0.4579,0.4556,0.4511,0.4498,0.4488,0.4432,0.4403,0.4376,0.4379,0.4365,0.436,0.4354,0.4364,0.4365,0.4366,0.4369,0.437,0.4352,0.4351,0.4351,0.4351,0,0.4738,0.4716,0.471,0.4668,0.4648,0.4632,0.4593,0.4577,0.4555,0.4528,0.4503,0.4467,0.4432,0.4424,0.4401,0.4394,0.4389,0.4372,0.4354,0.4372,0.4374,0.4374,0.4355,0.4354,0.4353,0.4353,0,0,0.4783,0.4721,0.4719,0.47,0.4655,0.4637,0.4619,0.4586,0.4573,0.4543,0.4526,0.449,0.4474,0.4452,0.4426,0.4418,0.4428,0.4401,0.44,0.4408,0.4417,0.4431,0.4433,0.4412,0.4412,0.4412,0.4421,0,0.4795,0.4762,0.4728,0.4706,0.4686,0.465,0.4634,0.4604,0.4578,0.4557,0.4527,0.4503,0.4483,0.447,0.446,0.4429,0.4429,0.4428,0.4396,0.4395,0.4407,0.4433,0.4447,0.4457,0.4421,0.4421,0.4421,0,0.4804,0.4777,0.4753,0.471,0.47,0.4687,0.4654,0.4634,0.4599,0.4581,0.4557,0.453,0.4509,0.4493,0.4463,0.4463,0.4448,0.443,0.443,0.4425,0.4409,0.4429,0.4459,0.4461,0.4422,0.4422,0.4422,0,0.484,0.4797,0.4777,0.4761,0.471,0.4702,0.468,0.4645,0.4627,0.4598,0.4586,0.4555,0.4538,0.4514,0.4478,0.4471,0.4452,0.4433,0.4436,0.4437,0.4433,0.4434,0.4461,0.4424,0.4424,0.4424,0.4424,0,0.4857,0.4844,0.4792,0.478,0.4765,0.4726,0.4711,0.4686,0.4655,0.4637,0.4604,0.4587,0.4542,0.452,0.4492,0.4471,0.4463,0.4448,0.444,0.4451,0.4453,0.444,0.4438,0.4424,0.4424,0.4424,0.4424,0,0.4894,0.4859,0.4835,0.4789,0.4777,0.4768,0.4728,0.4714,0.4687,0.4665,0.4657,0.4614,0.4586,0.4549,0.4509,0.449,0.4473,0.4461,0.4485,0.4481,0.4485,0.4485,0.4505,0.4505,0.4469,0.4469,0.4469,0,0.4907,0.4896,0.4849,0.4835,0.4815,0.4793,0.4775,0.4736,0.4719,0.4679,0.467,0.464,0.4614,0.4571,0.4536,0.4505,0.4493,0.4502,0.4488,0.4499,0.4493,0.4494,0.4493,0.4505,0.4506,0.4506,0.4507,0,0.4934,0.4918,0.4893,0.4863,0.4843,0.4817,0.479,0.478,0.4735,0.4717,0.4689,0.4669,0.4629,0.46,0.4565,0.4541,0.4517,0.4511,0.451,0.4521,0.4535,0.4527,0.4494,0.4511,0.4511,0.451,0.451,0.451,0.496,0.4949,0.4914,0.4888,0.4863,0.4839,0.4824,0.4795,0.4771,0.4736,0.4715,0.4688,0.4653,0.4603,0.4581,0.4559,0.4549,0.4547,0.4547,0.4547,0.4551,0.4539,0.4552,0.4552,0.4552,0.4552,0.4551,0,0.4985,0.4961,0.4938,0.4901,0.488,0.486,0.4828,0.4812,0.4789,0.4759,0.4735,0.4702,0.4673,0.4636,0.4604,0.4594,0.4582,0.4587,0.4587,0.4582,0.4561,0.4565,0.4597,0.4597,0.4597,0.4597,0.4597,0.4597,0.4996,0.4976,0.4955,0.4923,0.4898,0.4872,0.4856,0.4833,0.4809,0.4775,0.4751,0.4727,0.4694,0.4659,0.4632,0.4622,0.4612,0.462,0.4607,0.4588,0.4584,0.458,0.4583,0.4618,0.4618,0.4629,0.4629,0.4629]}]]